This demonstration page uses our WeatherBlox Daily Observations layout. Learn more.

39.29038, -76.61219

Hourly Observations for July 3, 2015

Temp ( °F °C ) Dew Point ( °F °C ) Humidity (%) Winds ( mph kmh ) Pressure ( in mb ) Visibility ( mi km ) Precip ( " mm )
12:54 am 00:54 Mostly Clear 72 22 63 17 73 73 undefined N/A 29.91 1013 N/A 0 0
1:54 am 01:54 Clear 70 21 63 17 78 78 undefined N/A 29.91 1013 N/A 0 0
2:54 am 02:54 Mostly Clear 68 20 64 18 88 88 undefined N/A 29.91 1013 N/A 0 0
3:54 am 03:54 Cloudy 68 20 63 17 83 83 undefined N/A 29.91 1013 N/A 0 0
4:54 am 04:54 Cloudy 68 20 63 17 83 83 undefined N/A 29.91 1013 N/A 0 0
5:54 am 05:54 Mostly Sunny 66 19 63 17 88 88 undefined N/A 29.94 1014 N/A 0 0
6:54 am 06:54 undefined 68 20 63 17 83 83 undefined N/A 29.97 1015 N/A 0 0
7:54 am 07:54 Mostly Sunny 70 21 63 17 78 78 undefined N/A 29.97 1015 N/A 0 0
8:54 am 08:54 undefined 72 22 63 17 73 73 undefined N/A 30 1016 N/A 0 0
9:54 am 09:54 Sunny 73 23 64 18 74 74 undefined N/A 30.03 1017 N/A 0 0
10:54 am 10:54 Mostly Cloudy 75 24 64 18 69 69 undefined N/A 30.03 1017 N/A 0 0
11:54 am 11:54 Mostly Cloudy 77 25 64 18 65 65 undefined N/A 30.03 1017 N/A 0 0
12:54 pm 12:54 undefined 79 26 64 18 61 61 undefined N/A 30 1016 N/A 0 0
1:54 pm 13:54 undefined 79 26 66 19 65 65 undefined N/A 29.97 1015 N/A 0 0
2:54 pm 14:54 undefined 81 27 63 17 54 54 undefined N/A 29.97 1015 N/A 0 0
3:54 pm 15:54 undefined 82 28 57 14 42 42 undefined N/A 29.97 1015 N/A 0 0
4:54 pm 16:54 undefined 81 27 55 13 42 42 undefined N/A 29.94 1014 N/A 0 0
5:54 pm 17:54 Cloudy 81 27 57 14 45 45 undefined N/A 29.94 1014 N/A 0 0
6:54 pm 18:54 undefined 79 26 57 14 48 48 undefined N/A 29.94 1014 N/A 0 0
7:54 pm 19:54 Cloudy 79 26 61 16 54 54 undefined N/A 29.94 1014 1.75 2.816352 0 0
8:54 pm 20:54 Cloudy 77 25 64 18 65 65 undefined N/A 29.91 1013 N/A 0 0
9:54 pm 21:54 Mostly Clear 75 24 63 17 65 65 undefined N/A 29.94 1014 N/A 0 0
10:54 pm 22:54 Mostly Cloudy 75 24 64 18 69 69 undefined N/A 29.94 1014 N/A 0 0
11:54 pm 23:54 undefined 75 24 63 17 65 65 undefined N/A 29.94 1014 N/A 0 0

Powered by AerisWeather